SZ-21 MODULE

Last updated on Sun Dec 14 2025 00:02:12 GMT+0000 (Coordinated Universal Time)

1 66515U 25246C 25347.24231733 .00039667 00000+0 43386-3 0 9995 2 66515 41.4775 12.9802 0006286 263.0797 96.9328 15.62521016 4528
UTC large
Height (km)
Speed (km/s)
/
Latitude / Longitude
Inclination (degrees)
Orbital Period (minutes)
Azimuth
Elevation
Range (km)
Doppler Factor

Next 0 passes for location: London (51.5072 / 0.1276)

Sorry there are no passes over London.